Location: Les Chemineaux
(47.3024°N, 1.5104°E)
Time: 19:25:06
(UTC+00:00)

CZ-4C R/B - Pass Details

Date: 19 May 2025
Orbit: 425 x 537 km, 98.0° (Epoch: 23 June)

Event Time Altitude Azimuth Distance (km) Brightness Sun altitude
Rises 22:49:01 0° 8° (N) 2,608 7.9 -21.3°
Reaches altitude 10° 22:51:11 10° 2° (N) 1,699 6.9 -21.4°
Maximum altitude 22:54:41 46° 289° (WNW) 657 3.9 -21.6°
Enters shadow 22:55:15 42° 259° (W) 700 3.8 -21.6°
